CW6871 Weather Reports


time (UTC)temp
F
wind
direction
speed
knots
gust
knots
rain 1hr
in
rain 24hr
in
rain mn
in
humidity
%
barometer
mb
20260505092150 54 178 0.0 0.0 0.00 0.00 0.00 89 1012.4
20260505091121 54 176 0.0 0.0 0.00 0.00 0.00 89 1012.4
20260505090110 54 168 0.0 0.0 0.00 0.00 0.00 89 1012.4
20260505084111 54 198 0.0 0.0 0.00 0.00 0.00 88 1012.3
20260505083129 55 170 0.0 0.0 0.00 0.00 0.00 88 1012.2
20260505082111 55 184 0.0 0.0 0.00 0.00 0.00 87 1012.1
20260505081127 55 181 0.0 0.0 0.00 0.00 0.00 87 1012.1
20260505080125 55 177 0.0 0.0 0.00 0.00 0.00 86 1012.1
20260505075115 56 176 0.0 0.0 0.00 0.00 0.00 86 1012.1
20260505073138 57 177 0.0 0.0 0.00 0.00 0.00 84 1011.9
20260505072120 57 168 0.0 0.0 0.00 0.00 0.00 83 1011.7
20260505071117 57 181 0.0 0.0 0.00 0.00 0.00 83 1011.6
20260505070147 58 180 0.0 0.0 0.00 0.00 0.00 82 1011.5
20260505065109 58 182 0.0 0.0 0.00 0.00 0.00 81 1011.4
20260505064108 59 184 0.0 0.0 0.00 0.00 0.00 81 1011.2
20260505062139 60 179 0.0 0.0 0.00 0.00 0.00 79 1011.1
20260505061149 61 179 0.0 0.0 0.00 0.00 0.00 77 1010.9
20260505060136 61 179 0.0 0.0 0.00 0.00 0.00 76 1010.8
20260505055133 62 172 0.0 0.0 0.00 0.00 0.00 75 1010.8
20260505054127 62 172 0.0 0.0 0.00 0.00 0.00 74 1010.7
20260505053142 62 188 0.0 0.0 0.00 0.00 0.00 74 1010.7
20260505052134 62 146 0.0 0.0 0.00 0.00 0.00 74 1010.4
20260505041140 66 48 0.0 0.0 0.00 0.00 0.00 58 1009.9
20260505040139 67 48 0.0 0.0 0.00 0.00 0.00 57 1009.7
20260505035123 68 48 0.0 0.0 0.00 0.00 0.00 56 1009.6
20260505034123 69 47 0.0 0.0 0.00 0.00 0.00 54 1009.5
20260505033147 70 48 0.0 0.0 0.00 0.00 0.00 54 1009.2
20260505031120 71 47 0.0 0.0 0.00 0.00 0.00 51 1009.2
20260505030135 72 52 0.0 0.0 0.00 0.00 0.00 51 1008.9
20260505025119 72 60 0.0 0.0 0.00 0.00 0.00 52 1008.8
20260505024139 73 63 0.0 0.0 0.00 0.00 0.00 50 1008.7
20260505023117 74 72 0.0 0.0 0.00 0.00 0.00 49 1008.7
20260505021112 75 71 0.0 0.0 0.00 0.00 0.00 47 1008.7
20260505020113 76 87 0.0 0.0 0.00 0.00 0.00 46 1008.7
20260505015115 76 26 0.0 0.0 0.00 0.00 0.00 45 1008.7
20260505014146 77 28 0.0 0.0 0.00 0.00 0.00 43 1008.8
20260505011131 77 177 0.0 0.0 0.00 0.00 0.00 44 1008.7
20260505010143 77 177 0.0 0.0 0.00 0.00 0.00 44 1008.8
20260505005129 77 174 0.0 0.0 0.00 0.00 0.00 44 1008.8
20260505004137 77 175 0.0 0.0 0.00 0.00 0.00 43 1008.7
20260505002146 77 147 0.0 0.0 0.00 0.00 0.00 42 1008.8
20260505001145 77 130 0.0 0.0 0.00 0.00 0.00 44 1008.8
20260505000113 77 178 0.0 0.0 0.00 0.00 0.00 42 1008.9
20260504235111 77 165 0.0 0.0 0.00 0.00 0.00 42 1009.0
20260504234112 77 151 0.0 0.0 0.00 0.00 0.00 39 1009.0
20260504233112 78 162 0.0 0.0 0.00 0.00 0.00 40 1009.0
20260504232143 78 182 0.0 0.0 0.00 0.00 0.00 42 1009.1
20260504231143 77 163 0.0 0.0 0.00 0.00 0.00 41 1009.0
20260504230137 77 173 0.0 0.0 0.00 0.00 0.00 40 1009.1
20260504223131 77 170 0.0 0.0 0.00 0.00 0.00 42 1009.4
20260504222135 77 180 0.0 0.0 0.00 0.00 0.00 44 1009.3
20260504221117 78 135 0.0 0.0 0.00 0.00 0.00 40 1009.7
20260504220121 78 174 0.0 0.0 0.00 0.00 0.00 43 1009.7
20260504215116 77 139 0.0 0.0 0.00 0.00 0.00 40 1009.8
20260504214117 77 190 0.0 0.0 0.00 0.00 0.00 43 1009.9
20260504213153 77 179 0.0 0.0 0.00 0.00 0.00 38 1009.9
20260504212134 77 173 0.0 0.0 0.00 0.00 0.00 39 1009.9
20260504211121 77 113 0.0 0.0 0.00 0.00 0.00 42 1009.9
20260504210116 76 150 0.0 0.0 0.00 0.00 0.00 41 1009.9
20260504205148 76 170 0.0 0.0 0.00 0.00 0.00 39 1010.0
20260504204121 76 350 0.0 0.0 0.00 0.00 0.00 40 1010.1
20260504203137 76 152 0.0 0.0 0.00 0.00 0.00 40 1010.1
20260504202113 76 152 0.0 0.0 0.00 0.00 0.00 45 1010.1
20260504201121 76 175 0.0 0.0 0.00 0.00 0.00 39 1010.1
20260504195148 76 184 0.0 0.0 0.00 0.00 0.00 45 1010.1
20260504194136 76 177 0.0 0.0 0.00 0.00 0.00 44 1010.0
20260504193145 76 178 0.0 0.0 0.00 0.00 0.00 43 1010.0
20260504192151 76 182 0.0 0.0 0.00 0.00 0.00 44 1010.1
20260504185144 73 185 0.0 0.0 0.00 0.00 0.00 50 1010.5
20260504184144 73 181 0.0 0.0 0.00 0.00 0.00 52 1010.4
20260504183154 72 151 0.0 0.0 0.00 0.00 0.00 51 1010.5
20260504181110 71 172 0.0 0.0 0.00 0.00 0.00 53 1010.4
20260504180125 70 175 0.0 0.0 0.00 0.00 0.00 54 1010.6
20260504175140 70 166 0.0 0.0 0.00 0.00 0.00 55 1010.5
20260504174153 69 174 0.0 0.0 0.00 0.00 0.00 56 1010.5
20260504173135 69 161 0.0 0.0 0.00 0.00 0.00 58 1010.5
20260504171150 68 164 0.0 0.0 0.00 0.00 0.00 62 1010.5
20260504170131 67 178 0.0 0.0 0.00 0.00 0.00 61 1010.5
20260504160154 63 169 0.0 0.0 0.00 0.00 0.00 73 1010.4
20260504150135 57 132 0.0 0.0 0.00 0.00 0.00 84 1010.1
20260504141109 52 132 0.0 0.0 0.00 0.00 0.00 88 1009.9
20260504140137 52 96 0.0 0.0 0.00 0.00 0.00 87 1009.7
20260504130148 51 70 0.0 0.0 0.00 0.00 0.00 87 1009.2
20260504120150 52 47 0.0 0.0 0.00 0.00 0.00 84 1009.1
20260504110130 53 47 0.0 0.0 0.00 0.00 0.00 81 1009.2
20260504100142 54 47 0.0 0.0 0.00 0.00 0.00 78 1009.0